User: anonymous   Login
Location: Unspecified
(0.0000°N, 0.0000°E)
Time: 17:22:22
(UTC+02:00)
Language:

Cosmos 1538 Rocket - Orbit

View from above orbital plane
View from above orbital plane
View from above satellite
View from above satellite

Ground track
Ground track

The orbit data is extracted from the following two-line orbital elements,

1 14760U 84019B   15211.75569699  .00000077  00000-0  35768-4 0  9993
2 14760 074.0450 302.7965 0028601 329.7515 201.2304 14.35708196644922
Epoch (UTC): 30 July 2015 18:08:12
Eccentricity: 0.0028601
inclination: 74.0450°
perigee height: 752 km
apogee height: 793 km
right ascension of ascending node: 302.7965°
argument of perigee: 329.7515°
revolutions per day: 14.35708196
mean anomaly at epoch: 201.2304°
orbit number at epoch: 64492

The dashed part of the orbit path shows where the satellite is in the earth's shadow,  

DLR